[[{"header":{"parameterUnit":"m.s-1","parameterCategory":1,"la1":30.2991,"la2":30.254,"lo1":-89.0895,"lo2":-89.0444,"dy":0.0017,"dx":0.0017,"nx":28,"ny":28,"refTime":"2025-11-27T03:00:00:Z","depth":0,"parameterNumber":2,"parameterNumberName":"U-component_of_WINDS"},"data":[0,0,0,0,0,0,0,0,0,0,0,0,0,0,0,0,0,0,0,0,0,0,0,0,0,0,0,0,0,0,0,0,0,0,0,0,0,0,0,0,0,0,0,0,0,0,0,0,0,0,0,0,0,0,0,0,0,0,-2.1246,-2.1245,0,-2.1228,-2.1228,-2.1228,-2.1164,-2.1163,-2.1161,-2.116,-2.1144,-2.1145,-2.1146,0,0,0,0,0,0,0,0,0,0,0,0,0,-2.1225,-2.1226,-2.1246,-2.1245,-2.1245,-2.1228,-2.1228,-2.1228,-2.1165,-2.1163,-2.1161,-2.1159,-2.1144,-2.1145,-2.1146,0,0,0,0,0,0,0,0,0,0,0,0,0,-2.1223,-2.1226,-2.1246,-2.1212,-2.1208,-2.1228,-2.1228,-2.1228,-2.1165,-2.1163,-2.1161,-2.1159,-2.1143,-2.1145,-2.1146,-2.1198,0,0,-2.115,-2.1151,0,0,0,0,0,0,0,0,-2.1224,-2.1224,-2.1217,-2.1214,-2.121,-2.1196,-2.1215,-2.1218,-2.1166,-2.1182,-2.116,-2.1158,-2.1163,-2.1163,-2.1164,-2.1197,-2.1197,-2.115,-2.1151,-2.1152,-2.1152,0,0,0,0,0,0,0,-2.1224,-2.1225,-2.1239,-2.1217,-2.1213,-2.1197,-2.1195,-2.1215,-2.1185,-2.118,-2.1175,-2.1174,-2.1161,-2.1163,-2.1164,-2.1196,-2.115,-2.1151,-2.1152,-2.1153,-2.1272,-2.1274,0,0,0,0,0,0,-2.1229,-2.1225,-2.1239,-2.1238,-2.1212,-2.12,-2.1197,-2.1203,-2.1184,-2.1179,-2.1176,-2.1171,-2.1162,-2.1162,-2.1163,-2.1223,-2.1152,-2.1153,-2.1154,-2.127,-2.1272,-2.1275,0,0,0,0,0,0,-2.1228,-2.123,-2.124,-2.123,-2.123,-2.1202,-2.121,-2.1204,-2.1206,-2.1181,-2.1176,-2.1184,-2.116,-2.1161,-2.119,-2.1222,-2.1154,-2.1155,-2.1267,-2.127,-2.1274,-2.1345,0,0,0,0,0,0,-2.1228,-2.1231,-2.125,-2.1231,-2.1231,-2.1267,-2.1212,-2.1205,-2.1208,-2.1202,-2.1187,-2.1183,-2.1159,-2.1188,-2.1191,-2.1222,-2.1156,-2.1264,-2.1268,-2.1273,-2.1339,-2.135,-2.1359,0,0,0,0,0,-2.1227,-2.1271,-2.1251,-2.1253,-2.1255,-2.1269,-2.1269,-2.124,-2.1211,-2.1231,-2.1215,-2.1183,-2.1217,-2.1192,-2.1195,-2.1227,-2.1262,-2.1267,-2.1272,-2.1335,-2.1348,-2.1359,0,0,0,0,0,0,-2.1295,-2.1268,-2.1246,-2.1284,-2.128,-2.1259,-2.1282,-2.1255,-2.1259,-2.1253,-2.1217,-2.1214,-2.1249,-2.124,-2.1212,-2.1277,-2.1234,-2.124,-2.1281,-2.1293,-2.1303,-2.1305,-2.1157,0,0,0,0,0,-2.1314,-2.1328,-2.1303,-2.134,-2.1338,-2.1311,-2.1316,-2.1294,-2.1288,-2.1286,-2.1272,-2.1268,-2.1277,-2.1284,-2.1292,-2.1337,-2.1334,-2.1361,-2.1371,-2.1379,-2.1385,-2.141,-2.1422,-2.1292,-2.1292,-2.1292,0,0,-2.1354,-2.1341,-2.1352,-2.1353,-2.1347,-2.1362,-2.131,-2.1328,-2.134,-2.1289,-2.1315,-2.1305,-2.1298,-2.1335,-2.1351,-2.133,-2.142,-2.1386,-2.1393,-2.1394,-2.1416,-2.1429,-2.144,-2.1296,-2.1295,-2.1294,0,0,-2.1435,-2.1426,-2.1456,-2.1451,-2.1441,-2.1423,-2.143,-2.1413,-2.1404,-2.143,-2.1392,-2.1405,-2.1423,-2.1419,-2.142,-2.1499,-2.1471,-2.1503,-2.1556,-2.158,-2.159,-2.1599,-2.1628,-2.1639,-2.1509,-2.1509,-2.1509,0,-2.1486,-2.1508,-2.1475,-2.1496,-2.1498,-2.1452,-2.1482,-2.1478,-2.1472,-2.1475,-2.145,-2.1471,-2.1463,-2.15,-2.1519,-2.1521,-2.1529,-2.1505,-2.1591,-2.16,-2.1607,-2.1635,-2.1646,-2.1513,-2.1512,-2.1512,-2.1512,0,-2.1572,-2.1587,-2.1612,-2.1608,-2.1612,-2.1638,-2.1609,-2.1617,-2.1595,-2.1579,-2.1607,-2.1595,-2.16,-2.1606,-2.1584,-2.164,-2.1627,-2.1597,-2.1554,-2.1624,-2.165,-2.166,-2.1519,-2.1517,-2.1516,-2.1515,0,0,-2.1696,-2.1672,-2.1682,-2.168,-2.1666,-2.1677,-2.1701,-2.1705,-2.1714,-2.1711,-2.173,-2.1746,-2.1718,-2.1719,-2.1696,-2.1717,-2.1782,-2.1685,-2.1684,-2.1705,-2.1844,-2.1868,-2.1881,-2.1763,-2.1765,-2.1766,-2.1845,0,-2.1774,-2.1813,-2.1784,-2.1828,-2.1842,-2.1798,-2.1819,-2.1813,-2.1799,-2.1809,-2.1793,-2.1805,-2.1767,-2.1768,-2.1786,-2.1771,-2.181,-2.1764,-2.1782,-2.1783,-2.1786,-2.1894,-2.1919,-2.1994,-2.1855,-2.1857,-2.1858,0,-2.1871,-2.1873,-2.1918,-2.1902,-2.1906,-2.1926,-2.1927,-2.1937,-2.193,-2.1918,-2.1919,-2.189,-2.1913,-2.187,-2.1901,-2.187,-2.1875,-2.1869,-2.1871,-2.1873,-2.1826,-2.19,-2.2017,-2.2029,-2.1873,-2.1872,-2.1871,0,-2.1959,-2.1972,-2.2001,-2.2,-2.1981,-2.1996,-2.1989,-2.1979,-2.1983,-2.1985,-2.1987,-2.1991,-2.1994,-2.1998,-2.1972,-2.1943,-2.2007,-2.1962,-2.1999,-2.2,-2.2016,-2.2015,-2.2137,-2.2017,-2.2017,-2.2016,-2.2016,0,-2.205,-2.208,-2.204,-2.2058,-2.2091,-2.2057,-2.209,-2.2078,-2.207,-2.2085,-2.2047,-2.2063,-2.2026,-2.2038,-2.2018,-2.2047,-2.2048,-2.204,-2.2035,-2.2044,-2.2046,-2.2049,-2.2043,-2.2019,-2.2019,-2.2018,-2.2018,0,-2.2155,-2.2129,-2.2158,-2.2137,-2.2133,-2.2158,-2.214,-2.2157,-2.2139,-2.2159,-2.2162,-2.2135,-2.2147,-2.2121,-2.213,-2.2116,-2.2158,-2.2144,-2.2161,-2.2157,-2.2196,-2.2194,-2.2326,-2.2342,-2.221,-2.2211,-2.2212,0,-2.2215,-2.2237,-2.2219,-2.2226,-2.2221,-2.2234,-2.2238,-2.2205,-2.2211,-2.2204,-2.2222,-2.223,-2.2236,-2.2257,-2.2239,-2.2245,-2.2231,-2.2277,-2.2232,-2.2241,-2.2234,-2.2233,-2.2236,-2.2287,-2.2288,-2.229,-2.2291,0,-2.2327,-2.2313,-2.232,-2.2323,-2.2329,-2.233,-2.2328,-2.2336,-2.2301,-2.231,-2.2322,-2.2326,-2.2334,-2.2344,-2.2346,-2.2339,-2.231,-2.2305,-2.2314,-2.2325,-2.2335,-2.2331,-2.2188,-2.2302,-2.2301,-2.23,-2.23,-2.2299,-2.2412,-2.2429,-2.2419,-2.2429,-2.2424,-2.2423,-2.2438,-2.2422,-2.2431,-2.2435,-2.2415,-2.2431,-2.2423,-2.2423,-2.2419,-2.2432,-2.2411,-2.2424,-2.2428,-2.2432,-2.2439,-2.2331,-2.2432,-2.2431,-2.2431,-2.2431,-2.243,0,-2.2522,-2.2513,-2.2522,-2.2521,-2.2529,-2.2499,-2.2495,-2.2504,-2.2519,-2.2513,-2.2519,-2.2533,-2.2542,-2.2524,-2.253,-2.2544,-2.2531,-2.2547,-2.2546,-2.2546,-2.2456,-2.2448,-2.2558,-2.2558,-2.2558,-2.2558,-2.2558,-2.2557,-2.2581,-2.2609,-2.2594,-2.262,-2.2611,-2.2626,-2.2627,-2.2626,-2.2622,-2.2639,-2.2646,-2.2634,-2.2624,-2.2629,-2.2636,-2.2631,-2.2636,-2.2657,-2.2647,-2.2564,-2.2552,-2.254,-2.2532,-2.2658,-2.2658,-2.2735,-2.2736,-2.2737]},{"header":{"parameterUnit":"m.s-1","parameterCategory":1,"la1":30.2991,"la2":30.254,"lo1":-89.0895,"lo2":-89.0444,"dy":0.0017,"dx":0.0017,"nx":28,"ny":28,"refTime":"2025-11-27T03:00:00:Z","depth":0,"parameterNumber":3,"parameterNumberName":"V-component_of_WINDS"},"data":[0,0,0,0,0,0,0,0,0,0,0,0,0,0,0,0,0,0,0,0,0,0,0,0,0,0,0,0,0,0,0,0,0,0,0,0,0,0,0,0,0,0,0,0,0,0,0,0,0,0,0,0,0,0,0,0,0,0,-4.685,-4.6851,0,-4.6914,-4.6915,-4.6916,-4.6893,-4.6892,-4.689,-4.6889,-4.6951,-4.6954,-4.6957,0,0,0,0,0,0,0,0,0,0,0,0,0,-4.6704,-4.6707,-4.685,-4.6851,-4.6851,-4.6914,-4.6915,-4.6916,-4.6893,-4.6892,-4.689,-4.6888,-4.695,-4.6954,-4.6957,0,0,0,0,0,0,0,0,0,0,0,0,0,-4.6768,-4.6708,-4.685,-4.6848,-4.6848,-4.6914,-4.6915,-4.6916,-4.6894,-4.6892,-4.689,-4.6888,-4.6949,-4.6953,-4.6958,-4.7028,0,0,-4.6971,-4.6973,0,0,0,0,0,0,0,0,-4.6764,-4.6773,-4.6847,-4.6848,-4.6849,-4.6894,-4.6886,-4.6953,-4.6894,-4.6876,-4.6889,-4.6887,-4.6933,-4.6939,-4.6956,-4.7031,-4.7033,-4.6972,-4.6974,-4.6976,-4.6978,0,0,0,0,0,0,0,-4.676,-4.677,-4.6875,-4.6848,-4.6849,-4.6843,-4.6849,-4.6899,-4.6916,-4.6878,-4.6876,-4.6884,-4.6933,-4.6951,-4.6957,-4.7034,-4.6972,-4.6976,-4.6978,-4.698,-4.717,-4.7172,0,0,0,0,0,0,-4.6756,-4.6767,-4.6873,-4.6877,-4.6801,-4.6847,-4.6855,-4.6881,-4.6915,-4.6919,-4.6886,-4.6883,-4.6945,-4.6952,-4.6959,-4.7044,-4.6976,-4.6981,-4.6983,-4.7168,-4.7171,-4.7173,0,0,0,0,0,0,-4.6753,-4.6765,-4.687,-4.6822,-4.6835,-4.6852,-4.6882,-4.6884,-4.6902,-4.6922,-4.6924,-4.6902,-4.6943,-4.6953,-4.7011,-4.7046,-4.6983,-4.6987,-4.7165,-4.7169,-4.7172,-4.7214,0,0,0,0,0,0,-4.6749,-4.6764,-4.6792,-4.6822,-4.6837,-4.6923,-4.6884,-4.6886,-4.691,-4.6907,-4.6937,-4.694,-4.6942,-4.7005,-4.7016,-4.7051,-4.699,-4.7162,-4.7167,-4.7171,-4.7209,-4.7218,-4.7226,0,0,0,0,0,-4.6743,-4.68,-4.6793,-4.6806,-4.6872,-4.6925,-4.6933,-4.6936,-4.6913,-4.694,-4.6953,-4.6939,-4.704,-4.7011,-4.7023,-4.706,-4.716,-4.7165,-4.7171,-4.7206,-4.7217,-4.7226,0,0,0,0,0,0,-4.6771,-4.6804,-4.6797,-4.6865,-4.6893,-4.6921,-4.6956,-4.6947,-4.6981,-4.6976,-4.6977,-4.6984,-4.7044,-4.7058,-4.7025,-4.713,-4.7096,-4.7104,-4.7119,-4.7129,-4.7138,-4.7133,-4.6994,0,0,0,0,0,-4.6786,-4.6827,-4.6853,-4.691,-4.6925,-4.6938,-4.6961,-4.6961,-4.6989,-4.7,-4.7017,-4.7043,-4.7081,-4.7106,-4.7141,-4.7211,-4.7217,-4.7242,-4.7251,-4.7257,-4.7264,-4.7303,-4.7314,-4.7191,-4.7191,-4.7191,0,0,-4.6816,-4.6838,-4.6864,-4.6917,-4.6938,-4.698,-4.6948,-4.6993,-4.7024,-4.7006,-4.7063,-4.7076,-4.7106,-4.7171,-4.72,-4.7184,-4.73,-4.7264,-4.7269,-4.7273,-4.7309,-4.7321,-4.7332,-4.7195,-4.7194,-4.7193,0,0,-4.6891,-4.6913,-4.6964,-4.6986,-4.7019,-4.7028,-4.704,-4.707,-4.7079,-4.7136,-4.7124,-4.716,-4.7224,-4.7246,-4.7266,-4.7351,-4.7339,-4.7362,-4.7406,-4.7443,-4.7453,-4.7462,-4.7493,-4.7504,-4.7369,-4.7369,-4.7369,0,-4.6924,-4.6988,-4.6991,-4.7038,-4.7061,-4.7049,-4.71,-4.7121,-4.7163,-4.718,-4.7161,-4.7243,-4.7262,-4.7332,-4.7353,-4.7369,-4.7382,-4.7359,-4.7452,-4.746,-4.7468,-4.7498,-4.7509,-4.7372,-4.7372,-4.7371,-4.7371,0,-4.7026,-4.7071,-4.7108,-4.7151,-4.7179,-4.7227,-4.7237,-4.7264,-4.7262,-4.7272,-4.7331,-4.7353,-4.7394,-4.741,-4.7407,-4.748,-4.7469,-4.7451,-4.7418,-4.7483,-4.7511,-4.7522,-4.7376,-4.7375,-4.7374,-4.7373,0,0,-4.7122,-4.7167,-4.718,-4.72,-4.7236,-4.727,-4.7318,-4.7359,-4.7383,-4.7412,-4.7452,-4.7508,-4.7492,-4.7514,-4.7514,-4.7547,-4.7614,-4.7525,-4.7526,-4.7541,-4.7695,-4.7709,-4.7722,-4.7606,-4.7608,-4.761,-4.7693,0,-4.7201,-4.7287,-4.7292,-4.737,-4.7411,-4.74,-4.7441,-4.7467,-4.7478,-4.7514,-4.7525,-4.7565,-4.754,-4.7554,-4.7586,-4.7599,-4.7645,-4.7593,-4.7643,-4.7645,-4.7637,-4.7737,-4.7751,-4.7829,-4.7704,-4.7706,-4.7707,0,-4.7305,-4.734,-4.7423,-4.7454,-4.7471,-4.7509,-4.7547,-4.7582,-4.7611,-4.7616,-4.7642,-4.7637,-4.7685,-4.765,-4.7717,-4.7681,-4.7702,-4.7711,-4.7715,-4.772,-4.768,-4.7745,-4.7854,-4.7866,-4.7724,-4.7723,-4.7721,0,-4.7368,-4.7435,-4.7493,-4.7511,-4.7548,-4.7575,-4.7591,-4.7618,-4.7643,-4.7676,-4.7692,-4.7729,-4.775,-4.7779,-4.7784,-4.7758,-4.7851,-4.7816,-4.7857,-4.7857,-4.7878,-4.7876,-4.7992,-4.789,-4.789,-4.7889,-4.7889,0,-4.7456,-4.7507,-4.7522,-4.7558,-4.7615,-4.7619,-4.7675,-4.7689,-4.7714,-4.7752,-4.7743,-4.7779,-4.7783,-4.7819,-4.7824,-4.7879,-4.7888,-4.7893,-4.7894,-4.7895,-4.7894,-4.7908,-4.7903,-4.7892,-4.7892,-4.7891,-4.7891,0,-4.7536,-4.7548,-4.7611,-4.7641,-4.765,-4.7691,-4.7716,-4.7751,-4.7761,-4.7809,-4.782,-4.7836,-4.7878,-4.7886,-4.7936,-4.7939,-4.8005,-4.7999,-4.7996,-4.7995,-4.8036,-4.8032,-4.8165,-4.8183,-4.8069,-4.807,-4.8071,0,-4.7592,-4.7632,-4.7667,-4.7693,-4.7711,-4.7752,-4.7778,-4.7783,-4.781,-4.7846,-4.7876,-4.7918,-4.7952,-4.802,-4.8035,-4.8073,-4.8069,-4.8113,-4.8075,-4.8075,-4.8071,-4.8069,-4.8073,-4.8121,-4.8122,-4.8123,-4.8124,0,-4.7691,-4.7695,-4.7733,-4.7774,-4.7805,-4.7837,-4.7867,-4.7888,-4.7897,-4.7927,-4.7972,-4.7998,-4.805,-4.8092,-4.813,-4.8145,-4.8137,-4.8136,-4.8147,-4.8149,-4.8146,-4.8149,-4.8017,-4.8133,-4.8132,-4.8131,-4.8131,-4.813,-4.7761,-4.7796,-4.7827,-4.787,-4.7893,-4.7922,-4.7956,-4.7971,-4.8008,-4.8052,-4.8052,-4.8101,-4.8129,-4.8179,-4.8198,-4.8235,-4.8221,-4.8237,-4.8242,-4.8246,-4.825,-4.8139,-4.8242,-4.8241,-4.8241,-4.8241,-4.8241,0,-4.786,-4.788,-4.7919,-4.7963,-4.7996,-4.7986,-4.8019,-4.8047,-4.8091,-4.8118,-4.8152,-4.8203,-4.8244,-4.8263,-4.8303,-4.8329,-4.8326,-4.8339,-4.8338,-4.8342,-4.826,-4.8247,-4.8341,-4.8341,-4.8341,-4.8341,-4.8341,-4.8341,-4.7916,-4.7975,-4.7983,-4.8053,-4.8072,-4.8121,-4.8141,-4.8167,-4.8189,-4.8247,-4.8281,-4.8294,-4.8317,-4.8359,-4.8396,-4.84,-4.8415,-4.8431,-4.8434,-4.8357,-4.8347,-4.8337,-4.8325,-4.8434,-4.8434,-4.8512,-4.8513,-4.8513]}]]